www.pogodaiklimat.ru

Погода и климат >> Архив погоды >> Россия >> Калмыкия >> Малые Дербеты


ПОГОДА в Малых Дербетах

  • Прогноз погоды в Малых Дербетах
  • Монитор погоды в Малых Дербетах
  • Климат города

АРХИВ ПОГОДЫ в Малых Дербетах

Время (UTC), дата Ветер
(напр.,м/с)
 
Видим.   Явления Облачность Т
(С)
Тd
(С)
f
(%)
Тe
(С)
Тes
(С)
Комфортность P
(гПа)
Po
(гПа)
Тmin
(С)
Tmax
(С)
R
(мм)
R24
(мм)
S
(см)
06 17.05 СЗ 2 20 км 10/0
[Ac As]
+14.4 +6.2 58 +14 +17 1018.5 1017.4
09 17.05 С 1 20 км 10/0
[Cs]
+19.4 +7.4 46 +21 +38 комфорт 1017.9 1016.8
12 17.05 ЮЗ 2 20 км 9/3 600 м
[Cb cap Ac As]
+20.3 +7.0 42 +22 +25 комфорт 1017.4 1016.3
15 17.05 С 1 20 км {ливн. осадки} 9/8 600 м
[Sc Ac As]
+17.9 +10.3 61 +19 +19 1017.4 1016.3 +21.5
18 17.05 З 2 4000 м слабый ливневой дождь 10/10 540 м
[Cb cap]
+13.9 +12.8 93 +13 +13 1017.9 1016.8
21 17.05 С 1 4000 м слабый ливневой дождь 10/10 540 м
[Cb cap]
+13.4 +12.3 93 +14 +14 1017.1 1016.0
00 18.05 штиль 0 н/о н/о +13.3 +12.6 96 +13 +13 1016.9 1015.8
03 18.05 штиль 0 н/о н/о +13.3 +12.6 96 +13 +13 1016.9 1015.8
06 18.05 СЗ 2 4000 м дымка 10/10 450 м
[St]
+13.2 +12.4 95 +12 +12 1016.9 1015.9 +13.1 7
09 18.05 СЗ 2 4000 м слабый ливневой дождь 10/10 540 м
[Cb cap]
+13.7 +13.0 96 +13 +13 1017.3 1016.2
12 18.05 СЗ 1 4000 м слабый ливневой дождь 10/10 540 м
[Cb cap]
+13.4 +12.7 96 +13 +13 1017.4 1016.3
15 18.05 СЗ 3 20 км {ливн. осадки} 10/0
[Ac und]
+14.0 +10.7 80 +13 +13 1016.4 1015.3 +14.6 10
18 18.05 С 1 20 км {ливн. осадки} 8/3 600 м
[Sc Ac trans]
+12.5 +10.5 88 +12 +12 1017.1 1016.0
21 18.05 С 1 20 км ясно +11.8 +10.4 91 +12 +12 1016.1 1015.0
00 19.05 СЗ 1 4000 м слабый ливневой дождь 9/9 540 м
[Cb cap]
+11.9 +10.7 92 +12 +12 1014.9 1013.8
03 19.05 СЗ 1 1000 м дымка {ливн. осадки} 10/10 400 м
[St]
+12.2 +12.0 99 +12 +12 1014.4 1013.3 +11.2 3
06 19.05 ЮВ 2 4000 м слабый ливневой дождь 9/6 600 м
[Cb cap Ac As]
+14.6 +13.5 93 +14 +16 1014.2 1013.1
09 19.05 В 3 20 км {ливн. осадки} 9/9 570 м
[Cb cap]
+17.9 +12.1 69 +18 +20 1013.9 1012.8
12 19.05 В 4 20 км {ливн. осадки} 8/5 600 м
[Cu med, cong Ac trans]
+18.7 +12.0 65 +19 +22 1012.6 1011.5
15 19.05 В 2 20 км 9/0
[Ac und]
+16.9 +11.9 72 +17 +18 1012.6 1011.6 +18.9 0.6
18 19.05 СВ 1 20 км 9/9 500 м
[Sc]
+14.6 +12.5 87 +15 +15 1013.1 1012.0
21 19.05 СЗ 1 20 км ясно +12.1 +11.0 93 +12 +12 1012.0 1010.9
00 20.05 С 1 20 км ясно +11.1 +9.9 92 +11 +11 1011.3 1010.2
03 20.05 СЗ 2 500 м туман ?/? +12.2 +12.2 100 +11 +11 1010.4 1009.3 +10.8
06 20.05 С 2 10 км слабый ливневой дождь {туман} 9/4 600 м
[Cb cap Ac As]
+14.4 +12.8 90 +14 +17 1009.1 1008.0
09 20.05 СЗ 2 4000 м слабый ливневой дождь 10/10 540 м
[Cb cap]
+15.9 +13.3 85 +16 +16 1008.6 1007.5
12 20.05 СЗ 4 20 км {ливн. осадки} 9/3 600 м
[Cu hum Ac As]
+16.4 +12.9 80 +16 +18 1007.1 1006.1
15 20.05 СЗ 2 20 км 9/4 600 м
[Cb cap Ac As]
+17.0 +11.8 71 +17 +18 1006.7 1005.7 +17.4 0.8
18 20.05 З 3 20 км 3/0
[Ac lent]
+13.3 +11.5 89 +12 +12 1006.5 1005.4
21 20.05 З 3 н/о н/о +13.7 +11.5 87 +13 +13 1005.6 1004.6
00 21.05 ЮЗ 2 20 км ясно +11.2 +10.0 92 +10 +10 1004.6 1003.6
03 21.05 ЮЗ 3 20 км 3/0
[Ci fib]
+12.7 +9.1 79 +11 +13 1004.0 1002.9 +11.0
06 21.05 З 5 20 км 4/4 600 м
[Cu med, cong]
+17.5 +11.5 68 +17 +20 1003.4 1002.3
09 21.05 ЮЗ 5-10
{12}
20 км 8/8 600 м
[Cu med, cong]
+20.2 +11.1 56 +22 +24 комфорт 1003.1 1002.0
12 21.05 ЮЗ 7-14
{14}
20 км 10/4 600 м
[Cu med, cong Ac trans Cs]
+21.0 +10.3 50 +23 +23 комфорт 1002.9 1001.8
15 21.05 З 6-13
{15}
20 км 10/3 600 м
[Cu med, cong Ac As Cs]
+18.6 +11.8 65 +19 +19 1003.4 1002.3 +21.6
18 21.05 З 3
{13}
20 км 9/3 600 м
[Cb cap Ac As]
+15.2 +11.8 80 +15 +15 1004.3 1003.3
21 21.05 ЮЗ 3 20 км {ливн. осадки} 9/0
[Ac As]
+15.3 +12.2 82 +15 +15 1004.4 1003.3
00 22.05 З 4 20 км {ливн. осадки} 9/0
[Ac As]
+14.8 +11.8 82 +14 +14 1004.0 1002.9
03 22.05 ЮЗ 3 20 км 9/0
[Ac As]
+14.6 +11.6 82 +14 +14 1004.9 1003.8 +14.4 0.0
06 22.05 З 4 20 км 9/0
[Ac trans]
+16.6 +11.9 74 +16 +20 1005.0 1003.9
09 22.05 ЮЗ 5
{11}
20 км 4/4 600 м
[Cu med, cong]
+21.5 +11.1 52 +23 +29 комфорт 1004.8 1003.8
12 22.05 З 6-12
{12}
20 км 10/4 600 м
[Cu med, cong Ci fib]
+22.7 +8.9 41 +24 +26 комфорт 1004.7 1003.7
15 22.05 СЗ 3
{13}
20 км 10/0
[Ac As Ci fib]
+17.0 +13.0 77 +17 +18 1006.7 1005.6 +23.3
18 22.05 З 2 20 км 10/0
[Ci fib]
+12.8 +10.2 84 +12 +12 1009.2 1008.1
21 22.05 З 2 20 км ясно +10.4 +8.5 88 +9 +9 1010.1 1009.0
00 23.05 З 2 20 км 10/0
[Ci fib]
+10.1 +7.5 84 +9 +9 1010.5 1009.4
03 23.05 СЗ 2 20 км 10/0
[Ci sp]
+11.0 +6.0 71 +10 +11 1011.9 1010.9 +8.4
06 23.05 СЗ 4 20 км 10/0
[Ci fib]
+15.6 +4.1 46 +15 +21 1013.3 1012.2
09 23.05 СЗ 3 20 км 10/1 600 м
[Cu hum Ci fib]
+18.3 -0.3 28 +19 +29 1014.5 1013.4
12 23.05 С 3 20 км 8/3 600 м
[Cu hum Ci fib]
+19.6 0.0 27 +20 +26 1014.8 1013.8
15 23.05 С 3 20 км 6/1 600 м
[Cu hum Ci fib]
+18.2 +0.1 29 +18 +19 1015.3 1014.2 +19.7
18 23.05 С 1 20 км 3/0
[Ci fib]
+12.6 +2.8 51 +13 +13 1017.7 1016.6
21 23.05 СЗ 1 20 км ясно +9.7 +3.9 67 +9 +9 1018.5 1017.4
00 24.05 ЮЗ 1 20 км ясно +7.4 +3.5 76 +7 +7 1019.2 1018.1
03 24.05 штиль 0 20 км 8/0
[Ci fib]
+10.0 +4.8 70 +9 +11 1019.9 1018.8 +5.8

 

Местоположение метеостанции Малые Дербеты (Калмыкия, Россия): широта 47.93 долгота 44.70 высота над уровнем моря 9 м.

В архиве по умолчанию представлена погода в Малых Дербетах за последнюю неделю. Архивные данные за месяц целиком и за предыдущие месяцы, начиная с января 2011 года, Вы можете получить, выбрав интересующий диапазон дат из раскрывающегося списка и нажав кнопку "Ввод!".

Внимание! Время в таблицах - всемирное. Для получения местного времени необходимо прибавить поправку, которая в Малых Дербетах равна 3 ч.

Смотрите также архив погоды в соседних городах и на ближайших метеорологических станциях:

Погода в Кетченерах (Калмыкия, Россия) (69 км)
Погода в Волгограде город (Волгоградская область, Россия) (84 км)
Погода в Волгограде (Волгоградская область, Россия) (98 км)
Погода в Черный Яр (Астраханская область, Россия) (107 км)
Погода в Котельниково (Волгоградская область, Россия) (121 км)
Погода в Калаче-на-Дону (Волгоградская область, Россия) (123 км)
Погода в Нижнем Чире (Волгоградская область, Россия) (125 км)
Погода в Юсте (Калмыкия, Россия) (151 км)
Погода в Верхнем Баскунчаке (Астраханская область, Россия) (154 км)
Погода в Иловле (Волгоградская область, Россия) (161 км)

Пояснения к столбцам:

Ветер - указаны скорость ветра в м/с - средняя за 10 мин, порывы в срок и между сроками (в фигурных скобках) и направление, откуда дует ветер: С - северный, СВ - северо-восточный, В - восточный, ЮВ - юго-восточный, Ю - южный, ЮЗ - юго-западный, З - западный, СЗ - северо-западный.
Видимость - горизонтальная дальность видимости в метрах или километрах. При видимости от 1 до 10 км при отсутствии осадков обычно наблюдается дымка, при ухудшении видимости до 1 км и менее - туман. В сухую погоду видимость может ухудшаться дымом, пылью или мглою.
Явления - указаны атмосферные явления, наблюдавшиеся в срок или в последний час перед сроком; фигурными скобками обозначены явления, наблюдавшиеся между сроками (за 1-3 часа до срока); квадратными скобками обозначены град или гололедные отложения с указанием их диаметра в мм.
Облачность - указаны через наклонную черту общая и нижняя облачность в баллах и высота нижней границы облаков в метрах; квадратными скобками обозначены формы облаков: Ci - перистые, Cs - перисто-слоистые, Cc - перисто-кучевые, Ac - высококучевые, As - высокослоистые, Sc - слоисто-кучевые, Ns - слоисто-дождевые, Cu - кучевые, Cb - кучево-дождевые. Подробнее классификацию облаков см. в Атласе облаков (PDF).
T - Температура воздуха - температура, измеренная на высоте 2 м над землей.
Td - Температура точки росы - температура, при понижении до которой содержащийся в воздухе водяной пар достигнет насыщения.
f - Относительная влажность воздуха - влажноcть воздуха, измеренная на высоте 2 м над землей.
Te - Эффективная температура - температура, которую ощущает одетый по сезону человек в тени. Характеристика душности погоды. При расчете учитывается влияние влажности воздуха и скорости ветра на теплоощущения человека.
Tes - Эффективная температура на солнце - температура, которую ощущает человек, с поправкой на солнечный нагрев. Характеристика знойности погоды. Зависит от высоты солнца над горизонтом, облачности и скорости ветра. Ночью, в пасмурную погоду, а также при ветре 12 м/с и более поправка равна нулю.
P - Атмосферное давление - приведенное к уровню моря атмосферное давление.
Po - Атмосферное давление - измеренное на уровне метеостанции атмосферное давление.
Tmin - Минимальная температура - минимум температуры воздуха на высоте 2 м над землей.
Tmax - Максимальная температура - максимум температуры воздуха на высоте 2 м над землей.
R - Количество осадков - Количество выпавших осадков за период времени, мм. При наведении курсора мыши на число - период времени, за который выпало указанное количество осадков.
R24 - Количество осадков - Количество выпавших осадков за 24 часа, мм.
S - Снежный покров - Высота снежного покрова, см. При наведении курсора мыши на число - состояние снежного покрова и степень покрытия местности в баллах.